{"data":{"norad_id":51773,"epoch":"2026-09-20T02:04:07.788000Z","epoch_age_seconds":87335,"freshness":"FRESH","line1":"1 51773U 22017F   26263.08620125  .00010260  00000+0  62415-3 0  9997","line2":"2 51773  53.1863 185.3310 0002390  84.7296 275.3969 15.10989357251964","mean_motion":15.10989357,"eccentricity":0.000239,"inclination_deg":53.1863,"raan_deg":185.331,"arg_perigee_deg":84.7296,"mean_anomaly_deg":275.3969,"bstar":0.00062415,"rev_number":25196,"period_min":95.301796358053,"perigee_km":531.52964836865,"apogee_km":534.83325858941,"semimajor_km":6911.318453479,"source":"CELESTRAK","updated_at":"2026-09-20T09:00:39.936923Z"}}